Alexandria, MN

5:29 PM CDT on September 21, 2017 (GMT -0500)
Chandler

Weather History for KAXN - March, 2012

Change the Weather History Date:

Tuesday, March 27, 2012

  Actual Average Record
Temperature  
Mean Temperature 49 °F -  
Max Temperature 59 °F 41 °F 61 °F (1968)
Min Temperature 41 °F 23 °F -4 °F (1964)
Degree Days  
Heating Degree Days 16    
Moisture  
Dew Point 39 °F    
Average Humidity 70    
Maximum Humidity 83    
Minimum Humidity 49    
Precipitation  
Precipitation 0.00 in - - ()
Sea Level Pressure  
Sea Level Pressure 29.63 in    
Wind  
Wind Speed 25 mph (SW)    
Max Wind Speed 31 mph    
Max Gust Speed 41 mph    
Visibility 10 miles    
Events      
Averages and records for this station are not official NWS values.
T = Trace of Precipitation, MM = Missing Value Source: NWS Daily Summary

Daily Weather History Graph

Daily Weather History Graph

Search for Another Location

Airport or City:

Trip Planner

Search our weather history database for the weather conditions in past years. The results will help you decide how hot, cold, wet, or windy it might be!

Date:

Astronomy

Mar. 27, 2012 Rise Set
Actual Time 7:10 AM CDT 7:44 PM CDT
Civil Twilight 6:40 AM CDT 8:14 PM CDT
Nautical Twilight 6:04 AM CDT 8:49 PM CDT
Astronomical Twilight 5:27 AM CDT 9:26 PM CDT
Moon 9:25 AM CDT (3/27) 12:09 AM CDT (3/27)
Length of Visible Light 13h 33m
Length of Day
12h 34m
Waxing Crescent, 22% of the Moon is Illuminated
Mar 27
Waxing Crescent
Mar 30
First Quarter
Apr 6
Full
Apr 13
Last Quarter
Apr 21
New

Hourly Weather History & Observations

Time (CDT) Temp. Windchill Dew Point Humidity Pressure Visibility Wind Dir Wind Speed Gust Speed Precip Events Conditions
12:53 AM 41.0 °F 30.2 °F 33.1 °F 73% 29.73 in 10.0 mi SE 27.6 mph 40.3 mph N/A   Clear
1:53 AM 42.1 °F 32.1 °F 34.0 °F 73% 29.70 in 10.0 mi SE 25.3 mph 39.1 mph N/A   Mostly Cloudy
2:53 AM 42.1 °F 31.9 °F 34.0 °F 73% 29.65 in 10.0 mi SE 26.5 mph 33.4 mph N/A   Clear
3:53 AM 45.0 °F 35.2 °F 36.0 °F 71% 29.61 in 10.0 mi SSE 29.9 mph 36.8 mph N/A   Partly Cloudy
4:53 AM 45.0 °F 35.6 °F 37.0 °F 74% 29.57 in 10.0 mi SSE 27.6 mph 34.5 mph N/A   Mostly Cloudy
5:07 AM 44.6 °F 35.1 °F 37.4 °F 76% 29.54 in 10.0 mi SSE 27.6 mph 36.8 mph N/A   Scattered Clouds
5:26 AM 46.4 °F 37.9 °F 37.4 °F 71% 29.53 in 10.0 mi South 25.3 mph 34.5 mph N/A   Mostly Cloudy
5:33 AM 46.4 °F 37.7 °F 37.4 °F 71% 29.52 in 10.0 mi SSE 26.5 mph 36.8 mph N/A   Scattered Clouds
5:53 AM 45.0 °F 36.2 °F 37.9 °F 76% 29.53 in 10.0 mi SSE 24.2 mph - N/A   Clear
6:53 AM 46.9 °F - 39.9 °F 77% 29.53 in 10.0 mi South 20.7 mph 27.6 mph N/A   Clear
7:53 AM 46.9 °F - 42.1 °F 83% 29.50 in 10.0 mi South 18.4 mph - N/A   Clear
8:53 AM 53.1 °F - 44.1 °F 71% 29.49 in 10.0 mi SSW 19.6 mph 25.3 mph N/A   Clear
9:53 AM 57.0 °F - 37.9 °F 49% 29.47 in 10.0 mi SW 20.7 mph 26.5 mph N/A   Clear
10:29 AM 55.4 °F - 41.0 °F 58% 29.48 in 10.0 mi WSW 25.3 mph 32.2 mph N/A   Mostly Cloudy
10:53 AM 55.9 °F - 43.0 °F 62% 29.51 in 10.0 mi WSW 21.9 mph 32.2 mph N/A   Overcast
11:53 AM 57.0 °F - 45.0 °F 64% 29.53 in 10.0 mi WSW 25.3 mph 33.4 mph N/A   Overcast
12:53 PM 55.0 °F - 45.0 °F 69% 29.56 in 10.0 mi West 31.1 mph 41.4 mph N/A   Overcast
1:53 PM 55.9 °F - 43.0 °F 62% 29.59 in 10.0 mi West 26.5 mph 33.4 mph N/A   Overcast
2:17 PM 55.4 °F - 42.8 °F 63% 29.57 in 10.0 mi West 23.0 mph 41.4 mph N/A   Overcast
2:53 PM 53.1 °F - 41.0 °F 64% 29.62 in 10.0 mi West 23.0 mph 33.4 mph N/A   Overcast
3:53 PM 50.0 °F - 39.9 °F 68% 29.66 in 10.0 mi West 19.6 mph 38.0 mph N/A   Overcast
4:53 PM 48.9 °F - 39.0 °F 69% 29.69 in 10.0 mi West 20.7 mph 32.2 mph N/A   Overcast
5:53 PM 48.0 °F - 37.9 °F 68% 29.73 in 10.0 mi West 26.5 mph 36.8 mph N/A   Overcast
6:53 PM 46.0 °F 37.6 °F 37.9 °F 73% 29.76 in 10.0 mi WNW 24.2 mph 33.4 mph N/A   Overcast
7:53 PM 45.0 °F 36.6 °F 37.0 °F 74% 29.79 in 10.0 mi WNW 21.9 mph 29.9 mph N/A   Overcast
8:53 PM 45.0 °F 37.6 °F 37.9 °F 76% 29.81 in 10.0 mi West 17.3 mph 32.2 mph N/A   Overcast
9:53 PM 44.1 °F 35.7 °F 36.0 °F 73% 29.82 in 10.0 mi WNW 20.7 mph 38.0 mph N/A   Overcast
10:24 PM 42.8 °F 34.3 °F 35.6 °F 76% 29.81 in 10.0 mi WNW 19.6 mph 33.4 mph N/A   Overcast
10:53 PM 42.1 °F 33.3 °F 35.1 °F 76% 29.85 in 10.0 mi WNW 19.6 mph 27.6 mph N/A   Overcast
11:53 PM 42.1 °F 32.3 °F 34.0 °F 73% 29.86 in 10.0 mi WNW 24.2 mph 27.6 mph N/A   Overcast